RH
75 66 72 67 65 68 79 63 70 61 68 46 48 46 48 48 43 43 44 43 40 40 40 41 41 42 43 44 47 52 58 69 76 80 86 89 90 90 86 86 80 79 78 82
83 73 75 79 73 67 61 65 71 65 66 45 44 54 47 42 43 48 47 43 41 41 41 40 42 43 44 45 46 50 56 60 64 70 76 83 88 90 91 88 87 82 79 78
80 81 72 70 58 60 70 63 55 63 49 43 46 42 42 47 50 49 47 47 46 46 46 44 44 44 46 45 47 51 54 55 59 62 64 69 80 89 90 90 88 84 79 81
95 80 83 60 49 44 56 54 54 52 50 45 47 43 46 48 59 54 50 50 50 50 48 48 49 50 46 48 50 54 59 60 62 64 66 68 81 87 89 90 88 84 79 77
92 92 70 56 49 46 44 47 41 49 50 47 52 53 53 49 55 55 55 49 51 53 52 49 50 53 54 50 55 59 61 59 61 65 69 73 78 78 84 88 87 83 79 80
92 93 86 59 50 48 46 48 41 49 51 53 55 67 65 49 52 53 53 55 56 55 55 58 58 60 62 57 60 66 62 61 60 70 74 70 71 75 84 86 82 85 76 76
91 92 84 61 52 52 65 54 45 54 56 56 59 58 51 53 57 58 59 60 62 66 67 61 65 67 67 64 64 59 61 65 70 69 70 71 82 88 89 90 88 85 80 73
80 92 92 57 57 61 52 57 59 62 62 60 57 57 58 57 59 60 64 62 62 66 60 56 60 65 64 64 59 64 65 64 64 63 68 77 88 89 88 91 92 92 88 81
80 74 57 55 53 54 56 60 64 64 58 59 64 63 60 63 60 57 56 53 51 54 53 52 54 61 64 57 56 60 64 66 67 67 68 69 78 82 89 90 93 93 91 85
70 58 56 50 56 58 60 61 57 59 60 60 62 62 67 68 62 58 54 55 56 60 61 60 58 60 65 64 64 68 70 70 68 68 69 73 75 83 92 93 93 94 91 89
65 59 52 53 55 60 59 60 63 62 62 62 66 68 66 64 63 62 61 61 64 67 66 67 66 68 67 67 73 77 75 72 75 76 80 84 84 85 88 89 90 92 93 91
62 53 65 62 56 55 60 63 63 66 63 62 67 68 68 66 65 65 67 68 69 71 75 70 70 73 68 73 78 81 83 84 87 91 93 93 94 90 80 81 81 83 86 89
56 54 63 60 58 57 61 59 56 58 59 64 63 65 66 66 66 63 66 70 73 70 71 74 75 72 72 77 83 85 90 91 94 92 94 95 95 96 96 86 82 84 84 86
55 63 67 63 62 59 57 53 53 56 56 58 59 59 62 64 64 65 67 64 68 70 72 75 74 74 74 81 86 87 89 86 94 95 96 96 96 96 98 98 98 94 86 86
49 59 66 69 70 66 64 64 69 66 63 64 62 64 67 68 68 66 64 64 69 73 74 77 75 70 75 82 87 88 92 94 94 96 96 93 95 96 96 97 98 97 95 87
67 66 67 68 76 78 78 76 81 80 77 76 74 71 70 72 75 72 69 68 74 66 66 75 71 66 78 83 88 89 87 89 91 95 96 95 95 96 95 96 96 97 97 96
76 78 79 84 84 84 83 85 87 88 87 84 75 70 75 74 77 79 74 70 70 70 70 76 73 72 82 85 88 93 97 97 93 98 97 96 96 97 96 98 98 97 95 92
68 69 75 83 85 84 80 78 78 79 78 69 73 78 81 81 80 76 74 73 75 72 73 71 76 80 84 85 87 92 96 96 94 92 92 96 96 94 94 97 98 97 95 94
67 62 54 56 59 70 74 71 68 67 71 72 77 74 75 78 80 77 76 82 78 76 65 66 75 80 84 86 87 93 95 94 89 89 92 93 94 95 95 94 95 97 96 94
54 46 66 72 57 63 65 66 70 71 65 68 66 66 66 65 65 72 76 82 73 69 68 68 73 81 85 88 87 94 95 94 94 94 96 96 98 97 95 93 94 96 95 94
53 55 74 71 62 61 63 61 61 66 64 70 72 66 64 62 64 67 77 79 66 71 77 77 79 83 92 88 91 96 96 97 96 96 97 96 96 95 95 95 95 96 95 96
58 61 62 60 62 63 62 63 64 63 66 67 63 63 66 70 70 75 76 80 70 72 76 81 88 85 89 84 94 96 96 97 96 96 96 96 96 97 97 95 97 96 95 96
58 62 61 58 59 55 51 50 52 60 61 58 61 63 63 62 64 76 80 69 79 80 84 87 84 84 84 91 96 95 97 97 97 96 95 95 95 96 97 98 97 96 96 96
52 56 59 56 56 60 62 57 55 54 56 58 61 63 67 70 72 72 79 77 79 80 80 83 86 83 82 95 97 97 98 98 97 97 96 91 92 95 93 97 98 96 97 96
59 62 65 70 72 65 64 66 71 72 72 73 71 72 76 77 83 73 73 76 76 80 85 82 80 82 90 96 96 95 95 97 98 98 92 93 91 91 93 95 96 96 97 97
62 58 54 56 57 56 57 60 64 62 64 66 64 65 69 72 79 81 83 81 83 84 89 88 91 93 94 94 94 94 93 96 95 97 96 96 90 93 94 94 93 94 96 97
61 62 65 65 62 62 68 71 75 71 68 69 71 68 72 74 79 80 83 87 87 87 90 89 91 92 94 94 94 93 93 94 92 97 98 95 94 89 87 89 94 96 97 98
Wind_Speed
5 7 4 7 8 9 10 11 10 5 10 14 8 7 10 7 4 7 6 6 6 6 7 7 8 7 7 7 7 6 7 6 8 8 7 7 7 8 8 7 8 8 7 7
5 5 5 7 11 14 15 13 12 12 21 13 11 7 5 5 5 3 3 5 7 7 8 8 8 8 8 8 8 6 7 8 7 7 7 8 8 8 7 8 8 7 8 8
5 2 6 9 10 14 6 6 13 15 13 7 4 5 5 0 4 5 6 7 8 8 8 8 8 8 9 9 7 7 7 8 7 7 8 9 9 7 8 9 7 9 9 8
4 3 3 5 4 6 11 5 9 8 6 3 3 5 3 3 4 5 6 7 8 7 10 8 7 8 10 8 8 8 8 9 7 8 8 8 7 7 8 6 8 8 9 9
2 3 10 2 3 4 4 0 3 4 2 4 1 1 4 2 1 4 5 8 7 7 8 11 10 8 9 12 7 7 9 10 8 7 8 7 8 9 7 5 6 7 6 8
2 2 6 3 2 2 2 3 5 2 0 1 3 2 5 5 5 8 8 7 8 8 9 9 9 7 9 12 9 8 9 10 9 7 7 10 9 9 5 5 7 5 7 7
6 5 10 7 4 1 4 5 2 3 3 5 1 5 5 7 7 6 6 8 7 8 8 9 7 7 9 9 9 10 9 8 8 7 9 9 8 4 4 5 5 5 6 6
6 5 11 6 3 5 4 2 5 3 1 3 6 7 7 8 7 7 7 9 7 7 9 9 7 6 10 10 10 8 8 9 9 9 6 5 5 5 4 4 5 6 5 6
10 8 4 5 3 2 3 3 2 2 4 5 6 5 7 6 7 8 7 6 7 7 10 10 9 6 9 13 12 12 10 9 8 8 6 5 5 6 4 3 3 4 4 5
2 2 3 3 2 3 3 4 5 5 4 4 6 7 7 7 6 6 7 8 6 7 9 11 9 8 7 9 10 8 9 9 7 6 7 6 4 3 4 4 4 4 4 4
4 5 6 2 3 4 6 4 3 5 5 7 6 6 5 5 5 5 6 6 5 6 8 10 11 11 10 10 8 8 6 6 6 5 5 5 4 4 4 4 5 4 4 4
13 5 3 12 10 7 4 4 4 4 5 4 3 4 3 5 5 5 7 6 7 7 7 10 10 10 9 7 6 6 6 5 5 4 4 4 5 6 5 9 9 9 11 9
14 6 7 14 13 4 3 4 4 5 4 4 4 3 4 5 4 9 7 7 7 9 9 8 9 10 10 7 6 6 5 6 4 5 4 4 4 4 7 6 9 11 10 10
7 10 10 4 4 3 3 4 4 3 3 3 4 4 3 5 7 7 8 8 9 10 10 9 9 11 8 6 6 6 5 7 4 4 4 4 4 5 3 4 7 7 5 8
10 3 1 1 1 3 3 2 4 4 4 5 4 5 5 7 7 9 9 8 8 9 10 8 9 12 7 7 6 6 5 4 4 3 4 5 4 4 4 4 5 6 6 6
4 4 2 2 4 3 3 4 3 5 5 5 6 8 8 7 7 9 9 7 6 10 11 9 11 12 7 7 6 5 5 8 6 3 3 5 4 4 4 4 6 6 6 5
2 2 3 2 4 5 5 5 6 6 7 7 9 9 8 9 8 8 9 9 8 10 11 10 12 10 7 6 6 5 4 5 7 4 4 5 5 6 5 4 5 6 7 6
4 3 4 5 6 6 8 6 7 8 8 10 8 7 7 7 9 11 10 9 9 11 9 11 9 8 7 6 6 5 5 6 6 7 7 7 7 6 6 5 6 6 7 6
8 9 12 9 7 7 8 10 9 7 8 7 7 9 9 9 9 11 10 8 10 11 15 8 9 10 9 9 7 4 5 6 8 6 6 11 8 6 6 6 7 6 5 6
12 14 9 12 12 8 10 9 8 8 10 9 9 10 13 13 11 11 10 12 13 10 11 14 13 9 9 9 12 4 5 7 7 7 6 7 7 7 7 9 8 6 6 5
10 10 11 11 12 12 10 11 11 11 12 7 8 12 14 15 13 13 12 10 18 9 9 13 9 9 5 8 7 5 5 5 7 7 7 7 7 6 6 7 8 7 7 5
10 10 11 12 11 12 11 11 11 13 11 10 11 11 11 14 12 12 12 13 12 19 10 8 7 12 9 14 5 7 6 6 6 6 6 6 7 7 7 7 8 6 6 5
11 12 12 13 13 15 14 13 14 13 13 12 11 11 12 10 9 9 12 13 7 10 8 7 13 18 19 8 5 6 7 7 6 6 6 6 7 8 7 7 7 6 6 6
12 12 13 14 12 11 13 15 14 14 13 13 12 12 10 9 10 8 9 17 21 17 11 10 13 19 19 5 4 5 6 7 6 5 6 11 7 7 8 7 8 7 6 7
13 13 12 10 11 12 13 13 11 12 12 12 13 12 12 9 9 11 9 10 17 15 11 15 20 20 8 5 4 5 7 5 5 4 7 7 8 8 8 7 8 7 6 5
13 10 9 11 11 11 10 9 9 10 9 10 11 9 9 8 8 9 9 14 11 13 10 9 7 7 5 6 5 6 6 6 6 5 6 6 7 6 7 7 7 7 6 6
10 13 9 9 8 8 8 9 7 11 9 8 11 10 8 8 8 10 12 10 10 9 8 8 7 8 6 7 6 6 5 6 9 5 5 6 6 6 6 7 7 6 6 5
Wind_Direction
262 244 237 225 225 206 201 216 204 212 228 245 260 274 309 282 293 310 317 322 327 320 307 299 308 305 299 293 298 298 291 278 260 260 257 252 248 239 237 229 235 226 223 228
283 286 247 264 249 236 233 232 245 256 272 265 263 267 249 285 269 280 322 331 326 320 323 324 318 304 302 299 296 294 286 277 276 278 273 259 252 241 233 236 227 219 229 231
256 331 311 285 242 220 188 201 216 228 247 257 249 214 273 6 51 3 346 328 320 306 298 306 303 294 296 297 294 293 286 286 280 282 279 271 252 239 238 237 229 229 228 214
269 4 256 242 263 198 196 225 225 272 256 201 199 230 225 211 55 337 308 297 304 304 317 305 295 303 298 299 297 298 291 285 281 280 278 279 267 251 248 228 223 225 229 226
252 252 301 297 180 153 178 143 198 167 78 142 204 197 327 32 18 270 283 311 300 290 291 305 312 297 297 306 297 291 289 290 284 272 281 284 276 266 252 235 234 223 218 213
133 215 258 297 198 149 119 254 197 155 50 58 55 12 263 280 326 304 289 269 278 292 294 302 303 300 302 305 309 296 295 292 296 287 279 283 274 270 253 229 243 228 241 222
205 241 279 241 224 167 129 212 117 86 58 38 1 214 253 298 294 278 279 301 301 294 285 291 296 298 296 295 294 293 292 292 290 281 282 279 277 259 266 262 262 262 255 249
186 214 262 170 74 176 214 15 105 72 169 247 245 269 278 284 279 285 293 304 298 294 297 302 300 308 305 301 296 291 289 292 290 293 293 293 287 295 294 290 285 284 279 282
190 209 235 205 17 73 96 131 217 239 259 252 270 272 286 276 292 304 297 296 303 301 302 307 307 297 297 304 312 312 313 304 296 299 302 305 300 299 299 268 259 270 259 271
136 313 302 291 109 98 191 225 254 252 260 281 273 270 269 280 291 307 313 318 315 315 314 310 309 304 279 292 293 296 294 299 301 306 315 322 312 296 289 284 271 265 267 263
237 279 307 112 179 242 244 228 199 251 242 248 257 272 273 292 302 295 296 303 309 302 303 302 307 307 307 307 312 310 303 308 315 315 319 316 305 282 287 264 233 262 253 243
266 260 241 279 292 278 257 260 286 258 278 273 253 288 294 301 289 293 302 307 309 299 289 302 309 306 306 303 309 314 315 319 315 316 322 323 319 317 280 288 300 292 285 268
251 243 229 254 256 164 238 258 257 260 267 291 310 293 308 294 285 314 303 295 296 300 300 302 306 310 308 312 317 315 311 310 311 323 316 319 320 322 321 323 297 303 307 295
197 206 257 226 237 302 260 284 295 292 294 284 290 304 291 287 298 298 296 296 299 303 303 301 305 298 297 299 302 298 300 309 310 304 308 313 304 299 296 301 312 315 295 295
277 159 156 93 17 345 346 335 334 321 305 304 276 273 291 299 297 298 298 296 291 292 288 289 295 296 295 294 287 288 296 300 296 302 307 305 300 302 292 289 286 284 307 312
73 49 61 73 10 335 298 316 321 298 294 290 293 295 283 266 272 284 289 289 298 300 296 285 290 290 283 284 275 276 273 274 289 287 308 303 293 285 292 291 295 299 298 292
115 81 28 302 313 313 294 282 258 262 270 266 267 276 286 290 290 287 283 277 270 273 279 272 276 285 282 275 276 260 261 265 290 291 281 284 282 285 278 275 276 283 284 279
64 36 340 290 292 305 306 287 277 267 260 271 273 266 262 261 264 277 276 277 274 278 268 272 267 274 273 271 267 259 254 272 278 282 281 277 270 259 263 262 267 273 286 285
355 345 329 304 282 267 263 268 275 282 284 284 279 287 278 274 270 272 277 275 284 293 296 288 269 283 285 277 273 261 266 271 280 279 274 277 276 267 266 263 259 258 269 289
282 284 282 286 283 265 270 269 266 271 279 284 287 292 295 291 290 285 282 271 272 269 284 286 288 280 273 278 282 242 244 259 265 275 275 270 261 267 271 266 265 255 251 268
273 276 257 258 270 273 267 269 275 272 272 265 266 277 279 281 283 285 286 286 286 284 259 264 269 276 263 274 270 261 247 248 258 260 263 267 275 271 271 271 268 261 253 235
271 271 273 275 274 274 271 260 252 260 258 255 261 267 269 273 281 281 262 252 278 280 278 268 259 261 265 277 264 262 259 250 253 260 262 263 263 267 266 270 264 263 258 243
270 269 268 269 269 271 277 272 271 264 263 262 262 263 268 272 276 277 282 284 256 262 262 264 269 273 276 271 253 262 260 260 258 259 265 267 268 267 264 263 266 263 258 250
263 263 259 264 272 274 271 272 272 272 273 279 272 266 268 275 277 259 253 265 272 277 268 270 273 274 273 252 236 252 252 249 249 253 259 269 273 272 270 267 266 260 249 257
260 262 269 269 264 265 270 270 275 272 270 267 268 267 257 247 232 268 270 267 272 275 273 268 268 275 267 246 236 250 255 248 242 244 268 273 282 284 282 270 262 262 251 242
265 261 265 256 259 271 271 271 265 272 272 272 273 271 268 259 246 250 259 264 266 264 260 267 262 261 245 246 235 241 251 252 255 252 257 256 272 273 272 267 266 264 259 250
267 268 261 265 258 256 253 249 253 263 265 261 269 277 272 270 263 263 258 261 266 267 263 270 266 260 249 249 240 237 245 248 255 248 235 248 262 266 259 258 254 256 251 243